Year,Month,Day,Hour,Minute,Value (Times are PST for temperature in C)
2019,07,10,00,00,21.10
2019,07,10,00,01,21.00
2019,07,10,00,02,20.90
2019,07,10,00,03,20.90
2019,07,10,00,04,20.80
2019,07,10,00,05,20.70
2019,07,10,00,06,20.70
2019,07,10,00,07,20.60
2019,07,10,00,08,20.50
2019,07,10,00,09,20.50
2019,07,10,00,10,20.40
2019,07,10,00,11,20.40
2019,07,10,00,12,20.30
2019,07,10,00,13,20.20
2019,07,10,00,14,20.20
2019,07,10,00,15,20.10
2019,07,10,00,16,20.00
2019,07,10,00,17,20.00
2019,07,10,00,18,19.90
2019,07,10,00,19,19.80
2019,07,10,00,20,19.80
2019,07,10,00,21,19.70
2019,07,10,00,22,19.60
2019,07,10,00,23,19.50
2019,07,10,00,24,19.50
2019,07,10,00,25,19.40
2019,07,10,00,26,19.30
2019,07,10,00,27,19.20
2019,07,10,00,28,19.20
2019,07,10,00,29,19.10
2019,07,10,00,30,19.10
2019,07,10,00,31,19.00
2019,07,10,00,32,18.90
2019,07,10,00,33,18.90
2019,07,10,00,34,18.80
2019,07,10,00,35,18.80
2019,07,10,00,36,18.70
2019,07,10,00,37,18.70
2019,07,10,00,38,18.60
2019,07,10,00,39,18.60
2019,07,10,00,40,18.50
2019,07,10,00,41,18.40
2019,07,10,00,42,18.30
2019,07,10,00,43,18.30
2019,07,10,00,44,18.20
2019,07,10,00,45,18.20
2019,07,10,00,46,18.10
2019,07,10,00,47,18.00
2019,07,10,00,48,18.00
2019,07,10,00,49,17.90
2019,07,10,00,50,17.90
2019,07,10,00,51,17.80
2019,07,10,00,52,17.80
2019,07,10,00,53,17.70
2019,07,10,00,54,17.70
2019,07,10,00,55,17.60
2019,07,10,00,56,17.60
2019,07,10,00,57,17.50
2019,07,10,00,58,17.50
2019,07,10,00,59,17.40
2019,07,10,01,00,17.40
2019,07,10,01,01,17.30
2019,07,10,01,02,17.30
2019,07,10,01,03,17.30
2019,07,10,01,04,17.20
2019,07,10,01,05,17.20
2019,07,10,01,06,17.10
2019,07,10,01,07,17.10
2019,07,10,01,08,17.00
2019,07,10,01,09,17.00
2019,07,10,01,10,16.90
2019,07,10,01,11,16.90
2019,07,10,01,12,16.80
2019,07,10,01,13,16.80
2019,07,10,01,14,16.70
2019,07,10,01,15,16.70
2019,07,10,01,16,16.70
2019,07,10,01,17,16.60
2019,07,10,01,18,16.60
2019,07,10,01,19,16.50
2019,07,10,01,20,16.50
2019,07,10,01,21,16.40
2019,07,10,01,22,16.40
2019,07,10,01,23,16.30
2019,07,10,01,24,16.30
2019,07,10,01,25,16.30
2019,07,10,01,26,16.20
2019,07,10,01,27,16.20
2019,07,10,01,28,16.20
2019,07,10,01,29,16.20
2019,07,10,01,30,16.20
2019,07,10,01,31,16.10
2019,07,10,01,32,16.10
2019,07,10,01,33,16.10
2019,07,10,01,34,16.00
2019,07,10,01,35,16.00
2019,07,10,01,36,15.90
2019,07,10,01,37,15.90
2019,07,10,01,38,15.80
2019,07,10,01,39,15.80
2019,07,10,01,40,15.80
2019,07,10,01,41,15.70
2019,07,10,01,42,15.70
2019,07,10,01,43,15.70
2019,07,10,01,44,15.60
2019,07,10,01,45,15.60
2019,07,10,01,46,15.60
2019,07,10,01,47,15.50
2019,07,10,01,48,15.50
2019,07,10,01,49,15.50
2019,07,10,01,50,15.40
2019,07,10,01,51,15.40
2019,07,10,01,52,15.40
2019,07,10,01,53,15.40
2019,07,10,01,54,15.40
2019,07,10,01,55,15.40
2019,07,10,01,56,15.30
2019,07,10,01,57,15.30
2019,07,10,01,58,15.30
2019,07,10,01,59,15.30
2019,07,10,02,00,15.20
2019,07,10,02,01,15.20
2019,07,10,02,02,15.20
2019,07,10,02,03,15.10
2019,07,10,02,04,15.10
2019,07,10,02,05,15.10
2019,07,10,02,06,15.00
2019,07,10,02,07,15.00
2019,07,10,02,08,14.90
2019,07,10,02,09,14.90
2019,07,10,02,10,14.80
2019,07,10,02,11,14.80
2019,07,10,02,12,14.80
2019,07,10,02,13,14.70
2019,07,10,02,14,14.70
2019,07,10,02,15,14.70
2019,07,10,02,16,14.60
2019,07,10,02,17,14.60
2019,07,10,02,18,14.60
2019,07,10,02,19,14.60
2019,07,10,02,20,14.50
2019,07,10,02,21,14.50
2019,07,10,02,22,14.40
2019,07,10,02,23,14.40
2019,07,10,02,24,14.30
2019,07,10,02,25,14.30
2019,07,10,02,26,14.30
2019,07,10,02,27,14.20
2019,07,10,02,28,14.20
2019,07,10,02,29,14.20
2019,07,10,02,30,14.10
2019,07,10,02,31,14.10
2019,07,10,02,32,14.10
2019,07,10,02,33,14.10
2019,07,10,02,34,14.00
2019,07,10,02,35,14.00
2019,07,10,02,36,14.00
2019,07,10,02,37,13.90
2019,07,10,02,38,13.90
2019,07,10,02,39,13.90
2019,07,10,02,40,13.80
2019,07,10,02,41,13.80
2019,07,10,02,42,13.80
2019,07,10,02,43,13.70
2019,07,10,02,44,13.70
2019,07,10,02,45,13.70
2019,07,10,02,46,13.70
2019,07,10,02,47,13.60
2019,07,10,02,48,13.60
2019,07,10,02,49,13.60
2019,07,10,02,50,13.50
2019,07,10,02,51,13.50
2019,07,10,02,52,13.40
2019,07,10,02,53,13.40
2019,07,10,02,54,13.40
2019,07,10,02,55,13.30
2019,07,10,02,56,13.30
2019,07,10,02,57,13.30
2019,07,10,02,58,13.30
2019,07,10,02,59,13.20
2019,07,10,03,00,13.20
2019,07,10,03,01,13.20
2019,07,10,03,02,13.20
2019,07,10,03,03,13.20
2019,07,10,03,04,13.10
2019,07,10,03,05,13.10
2019,07,10,03,06,13.10
2019,07,10,03,07,13.00
2019,07,10,03,08,13.00
2019,07,10,03,09,12.90
2019,07,10,03,10,12.90
2019,07,10,03,11,12.90
2019,07,10,03,12,12.80
2019,07,10,03,13,12.80
2019,07,10,03,14,12.80
2019,07,10,03,15,12.80
2019,07,10,03,16,12.70
2019,07,10,03,17,12.70
2019,07,10,03,18,12.70
2019,07,10,03,19,12.60
2019,07,10,03,20,12.60
2019,07,10,03,21,12.60
2019,07,10,03,22,12.60
2019,07,10,03,23,12.50
2019,07,10,03,24,12.50
2019,07,10,03,25,12.50
2019,07,10,03,26,12.40
2019,07,10,03,27,12.40
2019,07,10,03,28,12.40
2019,07,10,03,29,12.40
2019,07,10,03,30,12.30
2019,07,10,03,31,12.30
2019,07,10,03,32,12.30
2019,07,10,03,33,12.30
2019,07,10,03,34,12.30
2019,07,10,03,35,12.20
2019,07,10,03,36,12.20
2019,07,10,03,37,12.20
2019,07,10,03,38,12.20
2019,07,10,03,39,12.20
2019,07,10,03,40,12.20
2019,07,10,03,41,12.10
2019,07,10,03,42,12.10
2019,07,10,03,43,12.10
2019,07,10,03,44,12.10
2019,07,10,03,45,12.10
2019,07,10,03,46,12.00
2019,07,10,03,47,12.00
2019,07,10,03,48,11.90
2019,07,10,03,49,11.90
2019,07,10,03,50,11.90
2019,07,10,03,51,11.90
2019,07,10,03,52,11.80
2019,07,10,03,53,11.80
2019,07,10,03,54,11.80
2019,07,10,03,55,11.80
2019,07,10,03,56,11.80
2019,07,10,03,57,11.80
2019,07,10,03,58,11.80
2019,07,10,03,59,11.80
2019,07,10,04,00,11.80
2019,07,10,04,01,11.80
2019,07,10,04,02,11.80
2019,07,10,04,03,11.80
2019,07,10,04,04,11.80
2019,07,10,04,05,11.80
2019,07,10,04,06,11.80
2019,07,10,04,07,11.80
2019,07,10,04,08,11.70
2019,07,10,04,09,11.70
2019,07,10,04,10,11.70
2019,07,10,04,11,11.70
2019,07,10,04,12,11.70
2019,07,10,04,13,11.70
2019,07,10,04,14,11.60
2019,07,10,04,15,11.60
2019,07,10,04,16,11.60
2019,07,10,04,17,11.60
2019,07,10,04,18,11.60
2019,07,10,04,19,11.60
2019,07,10,04,20,11.50
2019,07,10,04,21,11.50
2019,07,10,04,22,11.50
2019,07,10,04,23,11.50
2019,07,10,04,24,11.50
2019,07,10,04,25,11.40
2019,07,10,04,26,11.40
2019,07,10,04,27,11.40
2019,07,10,04,28,11.40
2019,07,10,04,29,11.30
2019,07,10,04,30,11.30
2019,07,10,04,31,11.30
2019,07,10,04,32,11.30
2019,07,10,04,33,11.30
2019,07,10,04,34,11.20
2019,07,10,04,35,11.20
2019,07,10,04,36,11.20
2019,07,10,04,37,11.20
2019,07,10,04,38,11.20
2019,07,10,04,39,11.10
2019,07,10,04,40,11.10
2019,07,10,04,41,11.10
2019,07,10,04,42,11.10
2019,07,10,04,43,11.10
2019,07,10,04,44,11.10
2019,07,10,04,45,11.00
2019,07,10,04,46,11.00
2019,07,10,04,47,11.00
2019,07,10,04,48,11.00
2019,07,10,04,49,10.90
2019,07,10,04,50,10.90
2019,07,10,04,51,10.90
2019,07,10,04,52,10.90
2019,07,10,04,53,10.90
2019,07,10,04,54,10.90
2019,07,10,04,55,10.90
2019,07,10,04,56,10.80
2019,07,10,04,57,10.80
2019,07,10,04,58,10.80
2019,07,10,04,59,10.80
2019,07,10,05,00,10.80
2019,07,10,05,01,10.80
2019,07,10,05,02,10.70
2019,07,10,05,03,10.70
2019,07,10,05,04,10.70
2019,07,10,05,05,10.70
2019,07,10,05,06,10.70
2019,07,10,05,07,10.70
2019,07,10,05,08,10.70
2019,07,10,05,09,10.70
2019,07,10,05,10,10.70
2019,07,10,05,11,10.70
2019,07,10,05,12,10.60
2019,07,10,05,13,10.60
2019,07,10,05,14,10.60
2019,07,10,05,15,10.60
2019,07,10,05,16,10.60
2019,07,10,05,17,10.60
2019,07,10,05,18,10.60
2019,07,10,05,19,10.60
2019,07,10,05,20,10.60
2019,07,10,05,21,10.60
2019,07,10,05,22,10.60
2019,07,10,05,23,10.60
2019,07,10,05,24,10.50
2019,07,10,05,25,10.50
2019,07,10,05,26,10.50
2019,07,10,05,27,10.50
2019,07,10,05,28,10.50
2019,07,10,05,29,10.50
2019,07,10,05,30,10.50
2019,07,10,05,31,10.50
2019,07,10,05,32,10.50
2019,07,10,05,33,10.50
2019,07,10,05,34,10.50
2019,07,10,05,35,10.50
2019,07,10,05,36,10.50
2019,07,10,05,37,10.50
2019,07,10,05,38,10.50
2019,07,10,05,39,10.50
2019,07,10,05,40,10.50
2019,07,10,05,41,10.50
2019,07,10,05,42,10.50
2019,07,10,05,43,10.50
2019,07,10,05,44,10.50
2019,07,10,05,45,10.50
2019,07,10,05,46,10.50
2019,07,10,05,47,10.50
2019,07,10,05,48,10.50
2019,07,10,05,49,10.50
2019,07,10,05,50,10.50
2019,07,10,05,51,10.40
2019,07,10,05,52,10.40
2019,07,10,05,53,10.50
2019,07,10,05,54,10.40
2019,07,10,05,55,10.40
2019,07,10,05,56,10.40
2019,07,10,05,57,10.40
2019,07,10,05,58,10.40
2019,07,10,05,59,10.40
2019,07,10,06,00,10.40
2019,07,10,06,01,10.40
2019,07,10,06,02,10.40
2019,07,10,06,03,10.40
2019,07,10,06,04,10.40
2019,07,10,06,05,10.40
2019,07,10,06,06,10.40
2019,07,10,06,07,10.40
2019,07,10,06,08,10.40
2019,07,10,06,09,10.40
2019,07,10,06,10,10.40
2019,07,10,06,11,10.40
2019,07,10,06,12,10.30
2019,07,10,06,13,10.30
2019,07,10,06,14,10.30
2019,07,10,06,15,10.30
2019,07,10,06,16,10.30
2019,07,10,06,17,10.30
2019,07,10,06,18,10.30
2019,07,10,06,19,10.30
2019,07,10,06,20,10.30
2019,07,10,06,21,10.30
2019,07,10,06,22,10.30
2019,07,10,06,23,10.30
2019,07,10,06,24,10.30
2019,07,10,06,25,10.30
2019,07,10,06,26,10.30
2019,07,10,06,27,10.30
2019,07,10,06,28,10.30
2019,07,10,06,29,10.30
2019,07,10,06,30,10.30
2019,07,10,06,31,10.30
2019,07,10,06,32,10.20
2019,07,10,06,33,10.20
2019,07,10,06,34,10.20
2019,07,10,06,35,10.20
2019,07,10,06,36,10.20
2019,07,10,06,37,10.20
2019,07,10,06,38,10.20
2019,07,10,06,39,10.20
2019,07,10,06,40,10.20
2019,07,10,06,41,10.10
2019,07,10,06,42,10.10
2019,07,10,06,43,10.20
2019,07,10,06,44,10.20
2019,07,10,06,45,10.20
2019,07,10,06,46,10.20
2019,07,10,06,47,10.20
2019,07,10,06,48,10.20
2019,07,10,06,49,10.20
2019,07,10,06,50,10.20
2019,07,10,06,51,10.20
2019,07,10,06,52,10.20
2019,07,10,06,53,10.20
2019,07,10,06,54,10.20
2019,07,10,06,55,10.20
2019,07,10,06,56,10.20
2019,07,10,06,57,10.20
2019,07,10,06,58,10.20
2019,07,10,06,59,10.30
2019,07,10,07,00,10.30
2019,07,10,07,01,10.30
2019,07,10,07,02,10.30
2019,07,10,07,03,10.30
2019,07,10,07,04,10.30
2019,07,10,07,05,10.30
2019,07,10,07,06,10.30
2019,07,10,07,07,10.30
2019,07,10,07,08,10.30
2019,07,10,07,09,10.30
2019,07,10,07,10,10.30
2019,07,10,07,11,10.30
2019,07,10,07,12,10.30
2019,07,10,07,13,10.30
2019,07,10,07,14,10.30
2019,07,10,07,15,10.30
2019,07,10,07,16,10.30
2019,07,10,07,17,10.30
2019,07,10,07,18,10.30
2019,07,10,07,19,10.30
2019,07,10,07,20,10.30
2019,07,10,07,21,10.30
2019,07,10,07,22,10.30
2019,07,10,07,23,10.30
2019,07,10,07,24,10.40
2019,07,10,07,25,10.40
2019,07,10,07,26,10.40
2019,07,10,07,27,10.40
2019,07,10,07,28,10.40
2019,07,10,07,29,10.40
2019,07,10,07,30,10.40
2019,07,10,07,31,10.40
2019,07,10,07,32,10.40
2019,07,10,07,33,10.40
2019,07,10,07,34,10.40
2019,07,10,07,35,10.40
2019,07,10,07,36,10.40
2019,07,10,07,37,10.50
2019,07,10,07,38,10.50
2019,07,10,07,39,10.50
2019,07,10,07,40,10.50
2019,07,10,07,41,10.60
2019,07,10,07,42,10.60
2019,07,10,07,43,10.60
2019,07,10,07,44,10.60
2019,07,10,07,45,10.60
2019,07,10,07,46,10.60
2019,07,10,07,47,10.60
2019,07,10,07,48,10.60
2019,07,10,07,49,10.60
2019,07,10,07,50,10.70
2019,07,10,07,51,10.70
2019,07,10,07,52,10.70
2019,07,10,07,53,10.70
2019,07,10,07,54,10.70
2019,07,10,07,55,10.80
2019,07,10,07,56,10.80
2019,07,10,07,57,10.90
2019,07,10,07,58,10.90
2019,07,10,07,59,10.90
2019,07,10,08,00,11.00
2019,07,10,08,01,11.10
2019,07,10,08,02,11.10
2019,07,10,08,03,11.10
2019,07,10,08,04,11.20
2019,07,10,08,05,11.20
2019,07,10,08,06,11.20
2019,07,10,08,07,11.30
2019,07,10,08,08,11.30
2019,07,10,08,09,11.30
2019,07,10,08,10,11.40
2019,07,10,08,11,11.40
2019,07,10,08,12,11.40
2019,07,10,08,13,11.50
2019,07,10,08,14,11.50
2019,07,10,08,15,11.50
2019,07,10,08,16,11.60
2019,07,10,08,17,11.60
2019,07,10,08,18,11.60
2019,07,10,08,19,11.60
2019,07,10,08,20,11.60
2019,07,10,08,21,11.70
2019,07,10,08,22,11.70
2019,07,10,08,23,11.70
2019,07,10,08,24,11.70
2019,07,10,08,25,11.80
2019,07,10,08,26,11.80
2019,07,10,08,27,11.80
2019,07,10,08,28,11.90
2019,07,10,08,29,11.90
2019,07,10,08,30,11.90
2019,07,10,08,31,12.00
2019,07,10,08,32,12.00
2019,07,10,08,33,12.00
2019,07,10,08,34,12.00
2019,07,10,08,35,12.10
2019,07,10,08,36,12.10
2019,07,10,08,37,12.10
2019,07,10,08,38,12.10
2019,07,10,08,39,12.20
2019,07,10,08,40,12.20
2019,07,10,08,41,12.20
2019,07,10,08,42,12.20
2019,07,10,08,43,12.20
2019,07,10,08,44,12.30
2019,07,10,08,45,12.30
2019,07,10,08,46,12.30
2019,07,10,08,47,12.30
2019,07,10,08,48,12.40
2019,07,10,08,49,12.40
2019,07,10,08,50,12.40
2019,07,10,08,51,12.50
2019,07,10,08,52,12.50
2019,07,10,08,53,12.50
2019,07,10,08,54,12.60
2019,07,10,08,55,12.60
2019,07,10,08,56,12.60
2019,07,10,08,57,12.60
2019,07,10,08,58,12.70
2019,07,10,08,59,12.70
2019,07,10,09,00,12.70
2019,07,10,09,01,12.80
2019,07,10,09,02,12.80
2019,07,10,09,03,12.80
2019,07,10,09,04,12.90
2019,07,10,09,05,12.90
2019,07,10,09,06,13.00
2019,07,10,09,07,13.00
2019,07,10,09,08,13.10
2019,07,10,09,09,13.10
2019,07,10,09,10,13.10
2019,07,10,09,11,13.20
2019,07,10,09,12,13.20
2019,07,10,09,13,13.30
2019,07,10,09,14,13.30
2019,07,10,09,15,13.40
2019,07,10,09,16,13.40
2019,07,10,09,17,13.50
2019,07,10,09,18,13.50
2019,07,10,09,19,13.60
2019,07,10,09,20,13.60
2019,07,10,09,21,13.60
2019,07,10,09,22,13.60
2019,07,10,09,23,13.70
2019,07,10,09,24,13.70
2019,07,10,09,25,13.70
2019,07,10,09,26,13.70
2019,07,10,09,27,13.80
2019,07,10,09,28,13.80
2019,07,10,09,29,13.80
2019,07,10,09,30,13.80
2019,07,10,09,31,13.90
2019,07,10,09,32,13.90
2019,07,10,09,33,13.90
2019,07,10,09,34,14.00
2019,07,10,09,35,14.00
2019,07,10,09,36,14.00
2019,07,10,09,37,14.00
2019,07,10,09,38,14.10
2019,07,10,09,39,14.10
2019,07,10,09,40,14.10
2019,07,10,09,41,14.10
2019,07,10,09,42,14.20
2019,07,10,09,43,14.20
2019,07,10,09,44,14.20
2019,07,10,09,45,14.30
2019,07,10,09,46,14.30
2019,07,10,09,47,14.30
2019,07,10,09,48,14.40
2019,07,10,09,49,14.40
2019,07,10,09,50,14.50
2019,07,10,09,51,14.60
2019,07,10,09,52,14.60
2019,07,10,09,53,14.70
2019,07,10,09,54,14.70
2019,07,10,09,55,14.80
2019,07,10,09,56,14.80
2019,07,10,09,57,14.80
2019,07,10,09,58,14.80
2019,07,10,09,59,14.80
2019,07,10,10,00,14.90
2019,07,10,10,01,14.90
2019,07,10,10,02,14.90
2019,07,10,10,03,14.90
2019,07,10,10,04,14.90
2019,07,10,10,05,14.90
2019,07,10,10,06,14.90
2019,07,10,10,07,14.90
2019,07,10,10,08,15.00
2019,07,10,10,09,15.00
2019,07,10,10,10,15.10
2019,07,10,10,11,15.10
2019,07,10,10,12,15.20
2019,07,10,10,13,15.20
2019,07,10,10,14,15.30
2019,07,10,10,15,15.30
2019,07,10,10,16,15.40
2019,07,10,10,17,15.40
2019,07,10,10,18,15.50
2019,07,10,10,19,15.50
2019,07,10,10,20,15.60
2019,07,10,10,21,15.60
2019,07,10,10,22,15.70
2019,07,10,10,23,15.70
2019,07,10,10,24,15.80
2019,07,10,10,25,15.80
2019,07,10,10,26,15.90
2019,07,10,10,27,16.00
2019,07,10,10,28,16.00
2019,07,10,10,29,16.10
2019,07,10,10,30,16.10
2019,07,10,10,31,16.10
2019,07,10,10,32,16.20
2019,07,10,10,33,16.20
2019,07,10,10,34,16.20
2019,07,10,10,35,16.20
2019,07,10,10,36,16.20
2019,07,10,10,37,16.20
2019,07,10,10,38,16.30
2019,07,10,10,39,16.30
2019,07,10,10,40,16.30
2019,07,10,10,41,16.40
2019,07,10,10,42,16.40
2019,07,10,10,43,16.40
2019,07,10,10,44,16.40
2019,07,10,10,45,16.40
2019,07,10,10,46,16.40
2019,07,10,10,47,16.50
2019,07,10,10,48,16.50
2019,07,10,10,49,16.60
2019,07,10,10,50,16.60
2019,07,10,10,51,16.60
2019,07,10,10,52,16.70
2019,07,10,10,53,16.70
2019,07,10,10,54,16.80
2019,07,10,10,55,16.80
2019,07,10,10,56,16.80
2019,07,10,10,57,16.90
2019,07,10,10,58,16.90
2019,07,10,10,59,16.90
2019,07,10,11,00,17.00
2019,07,10,11,01,17.00
2019,07,10,11,02,17.10
2019,07,10,11,03,17.10
2019,07,10,11,04,17.20
2019,07,10,11,05,17.20
2019,07,10,11,06,17.30
2019,07,10,11,07,17.30
2019,07,10,11,08,17.40
2019,07,10,11,09,17.50
2019,07,10,11,10,17.50
2019,07,10,11,11,17.60
2019,07,10,11,12,17.60
2019,07,10,11,13,17.70
2019,07,10,11,14,17.70
2019,07,10,11,15,17.80
2019,07,10,11,16,17.80
2019,07,10,11,17,17.90
2019,07,10,11,18,17.90
2019,07,10,11,19,17.90
2019,07,10,11,20,17.90
2019,07,10,11,21,17.90
2019,07,10,11,22,18.00
2019,07,10,11,23,18.00
2019,07,10,11,24,18.00
2019,07,10,11,25,18.00
2019,07,10,11,26,18.00
2019,07,10,11,27,18.00
2019,07,10,11,28,18.00
2019,07,10,11,29,18.00
2019,07,10,11,30,18.00
2019,07,10,11,31,18.00
2019,07,10,11,32,18.00
2019,07,10,11,33,18.10
2019,07,10,11,34,18.10
2019,07,10,11,35,18.10
2019,07,10,11,36,18.10
2019,07,10,11,37,18.10
2019,07,10,11,38,18.20
2019,07,10,11,39,18.20
2019,07,10,11,40,18.20
2019,07,10,11,41,18.20
2019,07,10,11,42,18.20
2019,07,10,11,43,18.20
2019,07,10,11,44,18.20
2019,07,10,11,45,18.20
2019,07,10,11,46,18.30
2019,07,10,11,47,18.30
2019,07,10,11,48,18.30
2019,07,10,11,49,18.30
2019,07,10,11,50,18.30
2019,07,10,11,51,18.30
2019,07,10,11,52,18.40
2019,07,10,11,53,18.40
2019,07,10,11,54,18.40
2019,07,10,11,55,18.50
2019,07,10,11,56,18.50
2019,07,10,11,57,18.60
2019,07,10,11,58,18.60
2019,07,10,11,59,18.70
2019,07,10,12,00,18.70
2019,07,10,12,01,18.70
2019,07,10,12,02,18.80
2019,07,10,12,03,18.80
2019,07,10,12,04,18.90
2019,07,10,12,05,18.90
2019,07,10,12,06,18.90
2019,07,10,12,07,18.90
2019,07,10,12,08,19.00
2019,07,10,12,09,19.00
2019,07,10,12,10,19.10
2019,07,10,12,11,19.10
2019,07,10,12,12,19.10
2019,07,10,12,13,19.20
2019,07,10,12,14,19.30
2019,07,10,12,15,19.30
2019,07,10,12,16,19.40
2019,07,10,12,17,19.50
2019,07,10,12,18,19.60
2019,07,10,12,19,19.60
2019,07,10,12,20,19.70
2019,07,10,12,21,19.80
2019,07,10,12,22,19.80
2019,07,10,12,23,19.90
2019,07,10,12,24,19.90
2019,07,10,12,25,19.90
2019,07,10,12,26,19.90
2019,07,10,12,27,19.90
2019,07,10,12,28,19.90
2019,07,10,12,29,19.90
2019,07,10,12,30,20.00
2019,07,10,12,31,20.00
2019,07,10,12,32,20.00
2019,07,10,12,33,20.10
2019,07,10,12,34,20.10
2019,07,10,12,35,20.10
2019,07,10,12,36,20.20
2019,07,10,12,37,20.20
2019,07,10,12,38,20.20
2019,07,10,12,39,20.30
2019,07,10,12,40,20.30
2019,07,10,12,41,20.30
2019,07,10,12,42,20.30
2019,07,10,12,43,20.30
2019,07,10,12,44,20.30
2019,07,10,12,45,20.40
2019,07,10,12,46,20.40
2019,07,10,12,47,20.50
2019,07,10,12,48,20.50
2019,07,10,12,49,20.60
2019,07,10,12,50,20.60
2019,07,10,12,51,20.70
2019,07,10,12,52,20.70
2019,07,10,12,53,20.70
2019,07,10,12,54,20.80
2019,07,10,12,55,20.80
2019,07,10,12,56,20.90
2019,07,10,12,57,20.90
2019,07,10,12,58,21.00
2019,07,10,12,59,21.10
2019,07,10,13,00,21.10
2019,07,10,13,01,21.20
2019,07,10,13,02,21.20
2019,07,10,13,03,21.30
2019,07,10,13,04,21.30
2019,07,10,13,05,21.30
2019,07,10,13,06,21.40
2019,07,10,13,07,21.40
2019,07,10,13,08,21.40
2019,07,10,13,09,21.40
2019,07,10,13,10,21.50
2019,07,10,13,11,21.60
2019,07,10,13,12,21.60
2019,07,10,13,13,21.70
2019,07,10,13,14,21.70
2019,07,10,13,15,21.80
2019,07,10,13,16,21.80
2019,07,10,13,17,21.90
2019,07,10,13,18,21.90
2019,07,10,13,19,21.90
2019,07,10,13,20,22.00
2019,07,10,13,21,22.00
2019,07,10,13,22,22.10
2019,07,10,13,23,22.10
2019,07,10,13,24,22.10
2019,07,10,13,25,22.20
2019,07,10,13,26,22.20
2019,07,10,13,27,22.20
2019,07,10,13,28,22.20
2019,07,10,13,29,22.20
2019,07,10,13,30,22.30
2019,07,10,13,31,22.30
2019,07,10,13,32,22.30
2019,07,10,13,33,22.30
2019,07,10,13,34,22.40
2019,07,10,13,35,22.40
2019,07,10,13,36,22.40
2019,07,10,13,37,22.50
2019,07,10,13,38,22.50
2019,07,10,13,39,22.60
2019,07,10,13,40,22.60
2019,07,10,13,41,22.60
2019,07,10,13,42,22.70
2019,07,10,13,43,22.70
2019,07,10,13,44,22.80
2019,07,10,13,45,22.80
2019,07,10,13,46,22.80
2019,07,10,13,47,22.90
2019,07,10,13,48,22.90
2019,07,10,13,49,22.90
2019,07,10,13,50,22.90
2019,07,10,13,51,22.90
2019,07,10,13,52,22.90
2019,07,10,13,53,22.90
2019,07,10,13,54,22.90
2019,07,10,13,55,23.00
2019,07,10,13,56,23.00
2019,07,10,13,57,23.00
2019,07,10,13,58,23.10
2019,07,10,13,59,23.10
2019,07,10,14,00,23.20
2019,07,10,14,01,23.20
2019,07,10,14,02,23.20
2019,07,10,14,03,23.30
2019,07,10,14,04,23.30
2019,07,10,14,05,23.40
2019,07,10,14,06,23.40
2019,07,10,14,07,23.40
2019,07,10,14,08,23.50
2019,07,10,14,09,23.60
2019,07,10,14,10,23.60
2019,07,10,14,11,23.70
2019,07,10,14,12,23.70
2019,07,10,14,13,23.70
2019,07,10,14,14,23.80
2019,07,10,14,15,23.80
2019,07,10,14,16,23.80
2019,07,10,14,17,23.90
2019,07,10,14,18,23.90
2019,07,10,14,19,23.90
2019,07,10,14,20,24.00
2019,07,10,14,21,24.10
2019,07,10,14,22,24.10
2019,07,10,14,23,24.20
2019,07,10,14,24,24.30
2019,07,10,14,25,24.30
2019,07,10,14,26,24.40
2019,07,10,14,27,24.50
2019,07,10,14,28,24.50
2019,07,10,14,29,24.60
2019,07,10,14,30,24.70
2019,07,10,14,31,24.70
2019,07,10,14,32,24.80
2019,07,10,14,33,24.90
2019,07,10,14,34,24.90
2019,07,10,14,35,25.00
2019,07,10,14,36,25.10
2019,07,10,14,37,25.10
2019,07,10,14,38,25.20
2019,07,10,14,39,25.20
2019,07,10,14,40,25.20
2019,07,10,14,41,25.30
2019,07,10,14,42,25.30
2019,07,10,14,43,25.30
2019,07,10,14,44,25.40
2019,07,10,14,45,25.40
2019,07,10,14,46,25.40
2019,07,10,14,47,25.50
2019,07,10,14,48,25.50
2019,07,10,14,49,25.60
2019,07,10,14,50,25.60
2019,07,10,14,51,25.60
2019,07,10,14,52,25.60
2019,07,10,14,53,25.70
2019,07,10,14,54,25.70
2019,07,10,14,55,25.80
2019,07,10,14,56,25.80
2019,07,10,14,57,25.90
2019,07,10,14,58,25.90
2019,07,10,14,59,25.90
2019,07,10,15,00,26.00
2019,07,10,15,01,26.00
2019,07,10,15,02,26.10
2019,07,10,15,03,26.10
2019,07,10,15,04,26.20
2019,07,10,15,05,26.20
2019,07,10,15,06,26.30
2019,07,10,15,07,26.30
2019,07,10,15,08,26.40
2019,07,10,15,09,26.50
2019,07,10,15,10,26.50
2019,07,10,15,11,26.60
2019,07,10,15,12,26.60
2019,07,10,15,13,26.70
2019,07,10,15,14,26.70
2019,07,10,15,15,26.70
2019,07,10,15,16,26.70
2019,07,10,15,17,26.70
2019,07,10,15,18,26.80
2019,07,10,15,19,26.80
2019,07,10,15,20,26.80
2019,07,10,15,21,26.90
2019,07,10,15,22,26.90
2019,07,10,15,23,26.90
2019,07,10,15,24,27.00
2019,07,10,15,25,27.00
2019,07,10,15,26,27.10
2019,07,10,15,27,27.10
2019,07,10,15,28,27.20
2019,07,10,15,29,27.30
2019,07,10,15,30,27.30
2019,07,10,15,31,27.30
2019,07,10,15,32,27.40
2019,07,10,15,33,27.40
2019,07,10,15,34,27.40
2019,07,10,15,35,27.40
2019,07,10,15,36,27.50
2019,07,10,15,37,27.50
2019,07,10,15,38,27.50
2019,07,10,15,39,27.60
2019,07,10,15,40,27.60
2019,07,10,15,41,27.70
2019,07,10,15,42,27.70
2019,07,10,15,43,27.80
2019,07,10,15,44,27.80
2019,07,10,15,45,27.80
2019,07,10,15,46,27.80
2019,07,10,15,47,27.90
2019,07,10,15,48,27.90
2019,07,10,15,49,27.90
2019,07,10,15,50,27.90
2019,07,10,15,51,27.90
2019,07,10,15,52,27.90
2019,07,10,15,53,27.90
2019,07,10,15,54,27.90
2019,07,10,15,55,27.90
2019,07,10,15,56,27.90
2019,07,10,15,57,27.90
2019,07,10,15,58,27.90
2019,07,10,15,59,27.90
2019,07,10,16,00,27.90
2019,07,10,16,01,28.00
2019,07,10,16,02,28.00
2019,07,10,16,03,28.10
2019,07,10,16,04,28.10
2019,07,10,16,05,28.20
2019,07,10,16,06,28.20
2019,07,10,16,07,28.30
2019,07,10,16,08,28.30
2019,07,10,16,09,28.40
2019,07,10,16,10,28.40
2019,07,10,16,11,28.50
2019,07,10,16,12,28.60
2019,07,10,16,13,28.60
2019,07,10,16,14,28.70
2019,07,10,16,15,28.70
2019,07,10,16,16,28.70
2019,07,10,16,17,28.80
2019,07,10,16,18,28.80
2019,07,10,16,19,28.80
2019,07,10,16,20,28.90
2019,07,10,16,21,28.90
2019,07,10,16,22,28.90
2019,07,10,16,23,29.00
2019,07,10,16,24,29.00
2019,07,10,16,25,29.00
2019,07,10,16,26,29.00
2019,07,10,16,27,29.00
2019,07,10,16,28,28.90
2019,07,10,16,29,28.90
2019,07,10,16,30,29.00
2019,07,10,16,31,29.00
2019,07,10,16,32,29.00
2019,07,10,16,33,29.00
2019,07,10,16,34,29.00
2019,07,10,16,35,28.90
2019,07,10,16,36,28.90
2019,07,10,16,37,28.90
2019,07,10,16,38,28.80
2019,07,10,16,39,28.80
2019,07,10,16,40,28.80
2019,07,10,16,41,28.80
2019,07,10,16,42,28.70
2019,07,10,16,43,28.80
2019,07,10,16,44,28.70
2019,07,10,16,45,28.70
2019,07,10,16,46,28.70
2019,07,10,16,47,28.70
2019,07,10,16,48,28.70
2019,07,10,16,49,28.60
2019,07,10,16,50,28.60
2019,07,10,16,51,28.70
2019,07,10,16,52,28.70
2019,07,10,16,53,28.70
2019,07,10,16,54,28.70
2019,07,10,16,55,28.80
2019,07,10,16,56,28.80
2019,07,10,16,57,28.80
2019,07,10,16,58,28.90
2019,07,10,16,59,28.90
2019,07,10,17,00,28.90
2019,07,10,17,01,28.90
2019,07,10,17,02,28.90
2019,07,10,17,03,28.90
2019,07,10,17,04,28.90
2019,07,10,17,05,28.90
2019,07,10,17,06,28.90
2019,07,10,17,07,28.90
2019,07,10,17,08,28.90
2019,07,10,17,09,28.90
2019,07,10,17,10,28.90
2019,07,10,17,11,28.90
2019,07,10,17,12,28.90
2019,07,10,17,13,28.90
2019,07,10,17,14,29.00
2019,07,10,17,15,28.90
2019,07,10,17,16,28.90
2019,07,10,17,17,28.90
2019,07,10,17,18,28.90
2019,07,10,17,19,28.90